Tehachapi, CA

2:20 AM PST on January 22, 2018 (GMT -0800)
Tehachapi Municipal

Weather History for KTSP - November, 2010

Change the Weather History Date:

Friday, November 26, 2010

  Actual Average Record
Temperature  
Mean Temperature 36 °F -  
Max Temperature 48 °F 54 °F 75 °F (2017)
Min Temperature 24 °F 32 °F 24 °F (2015)
Degree Days  
Heating Degree Days 29    
Moisture  
Dew Point 2 °F    
Average Humidity 25    
Maximum Humidity 64    
Minimum Humidity 14    
Precipitation  
Precipitation 0.00 in - - ()
Sea Level Pressure  
Sea Level Pressure 30.22 in    
Wind  
Wind Speed 11 mph ()    
Max Wind Speed 21 mph    
Max Gust Speed 26 mph    
Visibility 9.7 miles    
Events      
Averages and records for this station are not official NWS values.
T = Trace of Precipitation, MM = Missing Value Source: Averaged Metar Reports

Daily Weather History Graph

Daily Weather History Graph

Search for Another Location

Airport or City:

Trip Planner

Search our weather history database for the weather conditions in past years. The results will help you decide how hot, cold, wet, or windy it might be!

Date:

Astronomy

Nov. 26, 2010 Rise Set
Actual Time 6:39 AM PST 4:42 PM PST
Civil Twilight 6:11 AM PST 5:10 PM PST
Nautical Twilight 5:40 AM PST 5:41 PM PST
Astronomical Twilight 5:10 AM PST 6:11 PM PST
Moon 9:52 PM PST (11/26) 10:51 AM PST (11/26)
Length of Visible Light 10h 58m
Length of Day
10h 03m
Waning Gibbous, 72% of the Moon is Illuminated
Nov 26
Waning Gibbous
Nov 28
Last Quarter
Dec 5
New
Dec 13
First Quarter
Dec 21
Full

Hourly Weather History & Observations

Time (PST) Temp. Windchill Dew Point Humidity Pressure Visibility Wind Dir Wind Speed Gust Speed Precip Events Conditions
12:15 AM 33.8 °F 24.8 °F -2.2 °F 22% 30.30 in 10.0 mi East 12.7 mph - N/A   Clear
12:35 AM 33.8 °F 25.3 °F -2.2 °F 22% 30.30 in 10.0 mi East 11.5 mph - N/A   Clear
12:55 AM 33.8 °F 25.3 °F -2.2 °F 22% 30.30 in 10.0 mi East 11.5 mph - N/A   Clear
1:15 AM 33.8 °F 25.3 °F -2.2 °F 22% 30.29 in 10.0 mi East 11.5 mph - N/A   Clear
1:35 AM 33.8 °F 25.3 °F -2.2 °F 22% 30.29 in 10.0 mi East 11.5 mph - N/A   Clear
1:55 AM 33.8 °F 24.8 °F -2.2 °F 22% 30.29 in 10.0 mi East 12.7 mph - N/A   Clear
2:15 AM 33.8 °F 24.3 °F -2.2 °F 22% 30.28 in 10.0 mi East 13.8 mph - N/A   Clear
2:35 AM 33.8 °F 25.3 °F -2.2 °F 22% 30.28 in 10.0 mi East 11.5 mph - N/A   Clear
2:55 AM 33.8 °F 25.3 °F -2.2 °F 22% 30.27 in 10.0 mi East 11.5 mph - N/A   Clear
3:15 AM 33.8 °F 25.3 °F -2.2 °F 22% 30.27 in 10.0 mi East 11.5 mph - N/A   Clear
3:35 AM 32.0 °F 23.6 °F -2.2 °F 23% 30.28 in 10.0 mi East 10.4 mph - N/A   Clear
3:55 AM 32.0 °F 22.1 °F -2.2 °F 23% 30.28 in 10.0 mi East 13.8 mph - N/A   Clear
4:15 AM 32.0 °F 22.1 °F -2.2 °F 23% 30.27 in 10.0 mi East 13.8 mph - N/A   Clear
4:35 AM 33.8 °F 25.8 °F -2.2 °F 22% 30.28 in 10.0 mi East 10.4 mph - N/A   Clear
4:55 AM 33.8 °F 26.4 °F -2.2 °F 22% 30.28 in 10.0 mi East 9.2 mph - N/A   Clear
5:15 AM 33.8 °F 25.3 °F -4.0 °F 20% 30.28 in 10.0 mi East 11.5 mph - N/A   Clear
5:35 AM 33.8 °F 25.3 °F -2.2 °F 22% 30.28 in 10.0 mi East 11.5 mph - N/A   Clear
5:55 AM 33.8 °F 25.8 °F -2.2 °F 22% 30.27 in 10.0 mi East 10.4 mph - N/A   Clear
6:15 AM 33.8 °F 25.3 °F -2.2 °F 22% 30.28 in 10.0 mi East 11.5 mph - N/A   Clear
6:35 AM 32.0 °F 23.6 °F -0.4 °F 25% 30.29 in 10.0 mi East 10.4 mph - N/A   Clear
6:55 AM 33.8 °F 24.8 °F -2.2 °F 22% 30.28 in 10.0 mi East 12.7 mph - N/A   Clear
7:15 AM 35.6 °F 27.5 °F -2.2 °F 20% 30.29 in 10.0 mi East 11.5 mph - N/A   Clear
7:35 AM 35.6 °F 27.1 °F -2.2 °F 20% 30.29 in 10.0 mi East 12.7 mph - N/A   Clear
7:55 AM 37.4 °F 29.8 °F -2.2 °F 19% 30.29 in 10.0 mi East 11.5 mph - N/A   Clear
8:15 AM 37.4 °F 29.3 °F -2.2 °F 19% 30.29 in 10.0 mi East 12.7 mph - N/A   Clear
8:35 AM 39.2 °F 32.0 °F -0.4 °F 19% 30.29 in 10.0 mi East 11.5 mph 17.3 mph N/A   Clear
8:55 AM 41.0 °F 32.5 °F -2.2 °F 16% 30.29 in 10.0 mi East 17.3 mph 21.9 mph N/A   Clear
9:15 AM 41.0 °F 32.5 °F -2.2 °F 16% 30.29 in 10.0 mi ESE 17.3 mph 24.2 mph N/A   Clear
9:35 AM 42.8 °F 34.5 °F -0.4 °F 16% 30.29 in 9.0 mi East 18.4 mph - N/A   Clear
9:55 AM 44.6 °F 36.6 °F -0.4 °F 15% 30.28 in 9.0 mi ESE 19.6 mph - N/A   Clear
10:15 AM 44.6 °F 36.9 °F -2.2 °F 14% 30.28 in 10.0 mi ESE 18.4 mph 26.5 mph N/A   Clear
10:35 AM 44.6 °F 36.6 °F -0.4 °F 15% 30.27 in 10.0 mi ESE 19.6 mph 23.0 mph N/A   Clear
10:55 AM 44.6 °F 36.6 °F -0.4 °F 15% 30.27 in 9.0 mi East 19.6 mph 25.3 mph N/A   Clear
11:15 AM 44.6 °F 36.4 °F -0.4 °F 15% 30.26 in 8.0 mi East 20.7 mph - N/A   Clear
11:35 AM 44.6 °F 37.2 °F -0.4 °F 15% 30.25 in 8.0 mi East 17.3 mph 24.2 mph N/A   Clear
11:55 AM 46.4 °F 39.8 °F -0.4 °F 14% 30.24 in 9.0 mi ESE 16.1 mph - N/A   Clear
12:15 PM 46.4 °F 39.2 °F -0.4 °F 14% 30.23 in 10.0 mi East 18.4 mph - N/A   Clear
12:35 PM 46.4 °F 40.1 °F -0.4 °F 14% 30.22 in 10.0 mi ESE 15.0 mph - N/A   Clear
12:55 PM 46.4 °F 40.4 °F -0.4 °F 14% 30.21 in 9.0 mi East 13.8 mph - N/A   Clear
1:15 PM 48.2 °F - 1.4 °F 15% 30.20 in 7.0 mi East 13.8 mph - N/A   Clear
1:35 PM 48.2 °F - 1.4 °F 15% 30.20 in 9.0 mi ESE 13.8 mph - N/A   Clear
1:55 PM 46.4 °F 41.5 °F 1.4 °F 16% 30.19 in 8.0 mi East 10.4 mph - N/A   Clear
2:15 PM 48.2 °F - 1.4 °F 15% 30.19 in 10.0 mi East 11.5 mph - N/A   Clear
2:55 PM 46.4 °F 41.5 °F 1.4 °F 16% 30.18 in 9.0 mi East 10.4 mph - N/A   Clear
3:15 PM 46.4 °F 41.1 °F -0.4 °F 14% 30.17 in 9.0 mi East 11.5 mph - N/A   Clear
3:35 PM 46.4 °F 40.4 °F 3.2 °F 17% 30.16 in 10.0 mi ESE 13.8 mph - N/A   Clear
3:55 PM 44.6 °F 39.2 °F 1.4 °F 17% 30.16 in 9.0 mi East 10.4 mph - N/A   Clear
4:15 PM 42.8 °F 36.2 °F -0.4 °F 16% 30.16 in 10.0 mi East 12.7 mph - N/A   Clear
4:35 PM 41.0 °F 33.9 °F -0.4 °F 18% 30.16 in 10.0 mi East 12.7 mph - N/A   Clear
4:55 PM 39.2 °F 32.0 °F -0.4 °F 19% 30.16 in 10.0 mi East 11.5 mph - N/A   Clear
5:35 PM 37.4 °F 30.8 °F 1.4 °F 22% 30.15 in 10.0 mi ESE 9.2 mph - N/A   Clear
6:15 PM 35.6 °F 29.2 °F 6.8 °F 30% 30.15 in 10.0 mi SE 8.1 mph - N/A   Clear
6:35 PM 32.0 °F 23.6 °F 5.0 °F 32% 30.15 in 10.0 mi East 10.4 mph - N/A   Clear
6:55 PM 37.4 °F 30.8 °F 1.4 °F 22% 30.15 in 10.0 mi ESE 9.2 mph - N/A   Clear
7:15 PM 33.8 °F 26.4 °F 5.0 °F 30% 30.15 in 10.0 mi ESE 9.2 mph - N/A   Clear
7:35 PM 35.6 °F 28.6 °F 1.4 °F 24% 30.15 in 10.0 mi ESE 9.2 mph - N/A   Clear
7:55 PM 32.0 °F 24.8 °F 6.8 °F 35% 30.15 in 10.0 mi ESE 8.1 mph - N/A   Clear
8:15 PM 30.2 °F 21.9 °F 10.4 °F 44% 30.15 in 10.0 mi SE 9.2 mph - N/A   Clear
8:35 PM 28.4 °F 19.7 °F 10.4 °F 47% 30.15 in 10.0 mi SE 9.2 mph - N/A   Clear
8:55 PM 30.2 °F 21.9 °F 10.4 °F 44% 30.15 in 10.0 mi SE 9.2 mph - N/A   Clear
9:15 PM 28.4 °F 19.7 °F 10.4 °F 47% 30.14 in 10.0 mi SE 9.2 mph - N/A   Clear
9:35 PM 28.4 °F - 12.2 °F 51% 30.14 in 10.0 mi Calm Calm - N/A   Clear
9:55 PM 28.4 °F 24.6 °F 10.4 °F 47% 30.14 in 10.0 mi ESE 3.5 mph - N/A   Clear
10:15 PM 26.6 °F - 10.4 °F 51% 30.14 in 10.0 mi Calm Calm - N/A   Clear
10:35 PM 26.6 °F - 12.2 °F 55% 30.14 in 10.0 mi Calm Calm - N/A   Clear
10:55 PM 24.8 °F - 12.2 °F 59% 30.13 in 10.0 mi Calm Calm - N/A   Clear
11:15 PM 24.8 °F - 12.2 °F 59% 30.13 in 10.0 mi Calm Calm - N/A   Clear
11:35 PM 24.8 °F - 12.2 °F 59% 30.12 in 10.0 mi Calm Calm - N/A   Clear
11:55 PM 24.8 °F 17.9 °F 14.0 °F 64% 30.12 in 10.0 mi East 5.8 mph - N/A   Clear